Wind_Speed
25 24 23 21 19 17 16 18 21 22 23 22 20 18 17 16 13 12 10 8 8 6 5 5 6 7 7 7 7 7 7 7 7 6 6 6 6 5 5 5 6 6 7 7 7 7 7 6 6
25 25 25 24 22 18 16 19 22 24 25 24 22 20 18 17 15 12 11 11 10 8 7 7 8 8 8 8 8 8 8 8 8 8 7 7 6 6 6 6 5 5 5 6 6 5 5 5 5
25 26 27 26 23 19 18 21 24 25 26 25 24 21 20 19 17 13 12 12 11 10 9 9 10 10 9 9 9 9 9 9 9 9 8 8 7 7 6 5 5 5 5 5 5 4 4 4 5
25 26 27 26 24 21 22 24 26 27 28 27 26 24 21 20 16 14 13 13 13 11 11 11 11 11 11 10 10 10 10 10 10 10 10 9 8 7 6 5 5 4 4 4 4 4 3 4 4
24 25 26 25 23 24 25 27 28 29 30 29 28 26 24 21 19 16 14 14 13 12 12 12 12 12 12 11 11 11 11 11 11 10 10 9 9 8 7 6 5 4 4 4 4 3 3 4 4
24 25 25 24 24 26 28 30 32 32 32 31 30 28 26 22 19 18 17 15 14 14 13 13 13 13 12 12 12 12 12 12 11 11 11 10 9 8 7 6 6 5 5 5 5 4 4 4 4
24 25 25 24 24 26 29 33 35 35 34 34 32 30 28 25 22 19 18 17 16 15 14 13 13 13 13 13 12 13 13 13 12 12 11 11 10 9 8 7 7 7 6 6 6 5 5 5 5
25 26 25 24 24 26 31 36 37 38 37 36 35 32 30 26 23 21 19 18 17 16 14 14 13 13 13 13 13 13 14 13 13 13 12 12 11 10 9 9 8 8 7 7 6 6 6 6 6
27 28 26 25 27 28 32 37 39 40 40 39 37 34 32 28 25 22 19 18 17 16 14 14 13 13 13 13 13 14 14 14 13 13 13 13 12 12 11 10 10 9 9 8 8 7 7 7 7
29 29 28 29 29 29 33 37 39 41 42 40 38 36 31 28 25 23 21 18 17 17 15 13 13 13 13 13 13 14 14 14 14 14 14 14 13 13 12 11 11 11 10 10 10 9 9 8 8
30 30 30 30 31 31 33 36 40 42 42 41 39 36 32 27 24 22 20 18 16 15 16 15 14 14 13 13 13 14 15 15 15 15 15 15 15 14 14 13 12 12 12 11 11 11 10 10 10
31 30 30 30 32 32 32 35 39 41 41 41 41 38 34 29 24 21 17 16 15 16 16 17 15 15 14 14 14 14 15 15 16 16 16 16 16 15 15 14 14 14 13 13 13 12 12 11 11
30 28 28 28 29 31 31 33 37 39 41 42 41 38 33 27 22 19 17 15 14 15 17 17 16 15 15 14 14 15 15 16 16 16 16 17 17 17 16 16 15 15 15 15 14 14 13 12 12
28 27 25 25 26 28 29 31 34 36 39 40 39 36 32 26 21 18 15 14 15 17 18 18 16 16 15 15 15 16 16 16 17 17 17 18 18 18 18 17 17 17 17 16 16 16 15 14 14
26 25 23 23 24 25 28 29 30 34 37 38 37 35 31 26 22 18 15 15 15 16 18 18 16 16 16 16 16 16 17 17 17 19 19 19 19 19 19 19 19 19 19 18 18 17 17 17 17
24 23 22 22 23 25 27 27 28 32 35 36 36 34 31 27 24 20 18 17 17 17 18 18 18 18 18 18 18 18 18 18 19 20 21 21 21 21 21 20 20 20 20 19 19 19 19 19 20
23 22 21 21 23 25 27 26 26 29 33 34 35 34 32 28 25 22 20 18 18 18 20 20 20 21 20 20 19 19 19 20 21 22 22 23 23 23 22 22 21 21 21 20 20 20 21 21 22
21 20 19 19 22 24 25 25 25 27 31 33 33 33 33 32 28 26 23 21 21 21 22 21 21 21 22 21 21 22 21 22 23 23 24 25 25 24 24 23 23 22 23 23 23 23 23 24 24
21 19 18 18 20 22 23 23 23 24 28 31 32 33 33 33 31 29 26 25 24 24 24 23 23 24 22 22 23 23 25 26 26 25 25 25 25 25 25 26 26 25 25 25 25 24 25 26 26
19 19 18 18 20 22 21 21 21 22 25 27 30 32 32 33 32 32 31 29 27 25 25 25 26 26 24 23 23 25 26 28 28 27 27 27 27 28 29 29 28 28 28 27 27 26 26 27 28
18 18 18 18 20 21 20 20 20 20 22 23 26 29 31 32 33 33 32 31 29 28 27 26 27 28 26 26 27 28 29 29 29 29 29 28 29 30 31 30 29 29 29 28 28 27 27 28 29
17 17 18 18 19 20 20 19 17 18 19 21 23 25 28 30 32 33 32 31 30 30 29 28 28 29 28 29 30 31 31 30 31 32 32 31 30 30 30 30 30 29 29 30 30 29 28 28 27
16 17 18 18 19 20 19 18 16 17 18 19 21 23 25 26 29 30 30 29 29 29 29 28 28 28 29 30 31 31 30 30 32 31 32 32 32 31 31 30 31 30 29 29 29 27 26 26 26
17 17 18 18 18 18 17 17 16 16 17 18 19 21 22 23 25 26 27 28 28 28 29 28 28 28 29 29 30 30 30 30 31 32 33 32 33 32 32 32 32 31 30 29 27 27 26 26 26
17 17 17 17 17 17 17 18 17 16 15 17 18 19 20 21 23 25 26 27 26 26 28 28 28 28 29 29 27 27 26 27 28 28 30 31 31 31 31 32 31 29 28 26 26 25 26 27 28
15 16 16 16 15 15 16 17 17 17 16 17 18 19 20 21 22 24 25 26 27 27 27 28 28 28 28 28 27 25 24 24 25 25 25 26 26 27 28 27 27 26 25 25 25 27 28 30 31
13 14 14 15 15 16 16 16 17 16 17 17 18 19 20 21 21 23 24 25 26 26 27 26 27 27 27 26 24 24 23 23 23 23 24 24 24 24 25 25 25 25 25 26 27 30 32 33 34
12 12 12 13 14 15 16 15 15 16 16 17 18 19 19 20 21 22 24 25 26 25 25 25 26 26 25 25 25 25 24 23 24 23 23 23 23 23 24 25 26 26 28 30 31 33 34 36 37
11 12 12 12 13 14 14 14 14 15 16 16 17 18 18 18 19 22 23 24 25 25 25 24 25 25 25 25 25 25 25 24 24 24 24 24 25 24 25 27 28 29 31 32 33 35 37 38 40
9 12 13 12 11 12 13 13 14 15 14 14 14 15 16 17 18 20 21 22 23 24 24 25 25 25 25 25 25 25 25 25 25 25 25 25 25 26 27 28 30 31 33 34 36 38 39 40 41
Wind_Direction
259 259 259 259 258 258 257 252 250 249 247 249 253 256 254 257 254 244 221 191 179 184 198 218 236 245 251 255 258 260 263 264 264 265 267 268 269 269 272 278 285 291 292 293 293 293 294 294 295
259 259 259 259 259 258 256 254 252 252 250 251 253 257 257 257 252 242 213 187 183 188 208 222 230 239 246 250 255 258 260 262 265 266 266 264 262 262 264 270 277 282 285 285 285 284 286 288 292
260 261 259 260 261 257 255 254 255 256 255 254 256 257 259 261 253 238 210 193 191 196 213 226 233 237 240 244 249 254 258 260 262 264 265 263 260 259 258 263 268 270 273 275 273 275 280 285 290
260 261 262 262 262 255 251 254 256 257 258 258 258 258 261 266 258 241 221 205 201 203 214 226 232 233 236 239 243 248 254 258 257 259 261 261 259 256 254 258 261 262 262 260 259 262 270 277 286
260 261 262 264 261 253 249 251 255 257 258 259 260 260 261 262 256 246 228 218 209 207 211 217 225 229 231 233 237 242 248 252 252 253 255 255 254 251 249 251 252 251 250 248 246 247 259 269 282
261 262 263 264 258 251 246 248 251 254 256 258 260 261 261 263 256 243 230 223 214 211 210 213 220 224 227 229 232 236 241 245 246 247 247 248 246 241 240 242 240 241 240 240 238 242 253 263 278
263 263 263 261 256 249 245 245 248 252 255 256 258 261 262 262 259 246 230 221 213 210 212 215 218 218 224 227 230 233 236 239 241 241 240 241 237 234 233 231 232 235 235 235 237 242 250 259 271
267 266 265 262 256 247 243 244 246 249 252 254 256 259 262 262 262 258 241 225 216 212 213 214 214 219 221 224 227 230 232 235 237 237 236 235 232 229 225 225 229 231 231 234 239 241 245 253 264
269 268 267 261 254 246 242 242 244 246 249 252 256 259 261 264 263 260 249 228 215 212 211 211 214 217 221 224 226 228 230 232 233 232 232 232 229 225 221 223 227 229 231 235 239 242 246 251 260
271 270 267 261 255 248 242 242 243 244 247 250 253 257 260 264 266 262 256 238 224 213 211 209 214 217 220 224 226 227 229 230 230 230 230 228 224 222 220 222 225 228 232 236 239 244 247 251 258
274 272 268 263 257 251 243 241 241 243 245 248 250 254 258 263 267 265 258 245 229 218 216 215 219 221 222 224 226 227 228 229 230 230 228 225 222 221 221 221 225 229 232 236 240 244 246 252 258
277 274 269 264 258 253 245 241 241 242 244 246 249 251 255 260 264 261 254 245 235 220 215 215 219 221 222 227 229 229 229 229 230 229 227 224 222 221 221 222 226 231 234 238 242 246 251 254 261
276 273 270 266 260 255 249 242 240 241 242 244 247 250 253 255 256 260 256 242 231 219 217 216 216 222 223 226 229 229 229 229 230 230 228 226 223 222 223 225 230 234 237 240 244 249 254 257 263
275 272 269 266 259 254 249 244 240 238 240 242 245 246 249 249 252 257 251 239 228 222 218 215 216 220 224 226 227 228 227 228 228 229 227 226 225 225 226 229 233 237 240 244 249 254 258 265 270
273 270 267 263 257 252 248 245 241 237 238 239 241 243 243 242 242 243 236 226 224 221 218 218 222 227 228 228 228 228 229 228 228 229 228 228 227 228 230 233 236 239 242 246 252 259 265 268 272
271 268 264 259 255 251 248 245 241 238 238 238 238 238 238 237 234 231 230 229 226 224 221 220 226 229 231 230 228 229 230 230 229 230 230 231 232 233 235 237 240 243 245 249 254 261 266 270 273
269 266 262 256 254 251 250 247 241 239 237 236 235 235 233 229 228 228 228 229 231 229 228 227 228 231 233 232 231 229 230 230 230 231 233 235 236 237 239 241 244 246 249 253 258 262 267 271 274
269 265 259 254 252 252 252 250 244 240 236 234 233 232 231 227 225 225 226 228 234 237 237 240 234 236 235 234 235 232 232 232 232 233 234 236 238 239 241 243 245 248 251 254 258 261 266 271 273
271 264 257 249 247 249 250 252 248 243 238 235 233 231 230 228 225 225 228 231 234 240 244 246 241 239 239 240 240 239 236 233 230 233 234 235 238 241 244 246 247 249 251 254 257 262 268 271 272
272 263 254 243 243 247 249 251 250 246 240 236 234 231 229 228 226 228 232 236 239 242 246 248 248 247 245 245 247 246 239 233 231 233 235 237 241 243 246 246 250 252 254 255 258 264 269 271 273
273 262 252 244 241 245 247 247 244 242 238 235 233 232 230 229 229 231 234 238 240 242 246 249 251 251 255 254 255 253 247 241 235 234 234 238 242 246 247 250 254 253 254 259 261 265 269 271 273
271 258 249 245 242 240 244 246 242 238 235 233 231 230 227 228 229 231 233 235 238 242 245 249 253 254 259 264 263 258 253 246 241 237 237 239 243 246 249 250 254 255 258 261 263 265 267 273 274
266 256 250 246 244 241 242 246 242 235 231 229 228 227 226 227 228 229 231 234 238 241 245 249 252 256 261 266 263 261 251 244 242 242 240 241 244 246 248 251 255 260 263 264 266 270 270 275 276
261 255 252 248 247 246 243 246 245 237 234 232 227 226 226 226 226 227 230 234 238 241 245 249 252 259 265 268 266 262 251 245 242 240 242 245 248 250 252 255 258 261 265 268 270 273 276 279 279
255 252 251 250 250 250 247 248 248 243 243 239 233 229 229 228 227 228 231 235 239 243 246 250 254 258 264 267 268 264 255 250 247 247 246 248 251 254 255 258 260 264 268 271 275 277 279 281 282
253 250 250 248 248 249 250 252 251 248 248 246 241 237 235 233 230 230 233 236 240 244 246 249 253 258 263 267 267 266 269 265 258 257 258 257 259 261 263 265 266 269 273 277 278 279 281 282 283
252 247 251 248 250 250 253 257 255 254 252 251 250 248 246 244 240 239 239 240 241 244 247 251 253 257 261 267 270 273 274 274 272 268 266 267 270 269 269 274 276 278 280 281 283 282 282 282 284
246 242 245 247 248 251 256 258 260 260 259 253 256 257 254 251 246 244 244 244 245 247 249 250 252 257 263 265 269 273 274 274 274 275 274 274 272 274 276 276 278 279 280 283 283 283 284 285 286
247 242 245 254 259 263 263 263 265 273 275 266 263 258 252 250 246 246 246 246 247 248 251 254 256 259 264 267 269 270 273 273 272 274 275 276 277 278 277 278 280 281 283 284 284 285 287 288 288
251 245 247 254 264 268 270 273 269 274 279 276 273 260 252 252 249 249 248 246 248 250 252 254 258 262 266 269 270 270 272 273 274 276 278 279 279 279 279 281 282 283 284 286 287 288 289 289 289
Height
5859 5860 5862 5864 5866 5867 5867 5868 5867 5867 5867 5868 5869 5870 5871 5872 5873 5876 5875 5874 5875 5877 5879 5880 5882 5883 5885 5885 5886 5887 5888 5889 5890 5891 5892 5893 5893 5894 5894 5895 5895 5895 5896 5896 5896 5896 5896 5896 5895
5855 5857 5858 5860 5861 5864 5865 5864 5864 5864 5865 5865 5866 5868 5868 5869 5869 5870 5870 5871 5872 5875 5877 5878 5880 5881 5882 5883 5884 5885 5886 5887 5888 5889 5890 5891 5892 5892 5893 5893 5894 5894 5894 5894 5895 5895 5895 5895 5894
5852 5853 5854 5856 5858 5861 5862 5861 5861 5860 5861 5862 5864 5865 5866 5866 5866 5867 5867 5868 5870 5872 5874 5876 5877 5879 5880 5881 5882 5883 5884 5885 5886 5887 5888 5889 5890 5890 5891 5891 5892 5892 5893 5893 5894 5894 5894 5894 5893
5849 5849 5850 5852 5855 5858 5858 5858 5857 5857 5858 5859 5861 5863 5864 5865 5864 5865 5865 5866 5867 5868 5870 5873 5874 5876 5877 5878 5879 5880 5881 5883 5884 5885 5886 5887 5888 5888 5889 5889 5890 5891 5891 5892 5893 5893 5893 5893 5893
5845 5845 5846 5848 5851 5853 5854 5853 5852 5853 5853 5855 5857 5859 5860 5862 5862 5862 5863 5864 5865 5866 5867 5869 5871 5873 5874 5875 5876 5877 5879 5880 5882 5883 5884 5885 5886 5886 5887 5888 5888 5889 5890 5891 5892 5892 5892 5892 5892
5841 5841 5842 5844 5846 5847 5848 5848 5848 5848 5849 5851 5853 5854 5857 5858 5859 5860 5860 5861 5863 5863 5864 5865 5867 5869 5871 5872 5873 5874 5876 5878 5879 5880 5882 5883 5884 5884 5885 5886 5887 5888 5889 5890 5890 5891 5891 5891 5891
5836 5836 5837 5839 5841 5842 5843 5842 5842 5843 5844 5846 5848 5850 5853 5855 5856 5857 5857 5858 5859 5860 5861 5862 5864 5865 5867 5869 5870 5871 5873 5875 5876 5878 5879 5881 5882 5883 5883 5884 5885 5886 5887 5888 5889 5889 5890 5890 5889
5830 5832 5832 5834 5835 5836 5836 5836 5836 5838 5839 5841 5843 5846 5849 5851 5852 5853 5854 5855 5856 5857 5858 5859 5860 5862 5864 5866 5867 5868 5870 5872 5873 5875 5877 5878 5880 5881 5882 5883 5884 5884 5885 5886 5887 5888 5888 5888 5888
5825 5827 5827 5828 5828 5829 5829 5829 5830 5831 5834 5836 5838 5842 5845 5847 5849 5851 5852 5852 5853 5854 5854 5856 5857 5859 5861 5862 5864 5866 5867 5869 5871 5873 5874 5876 5877 5879 5880 5881 5882 5883 5883 5884 5885 5886 5886 5887 5886
5819 5820 5821 5821 5821 5822 5822 5823 5823 5825 5828 5830 5833 5837 5840 5843 5846 5848 5849 5849 5849 5851 5851 5853 5854 5856 5858 5859 5861 5863 5865 5866 5868 5870 5872 5873 5875 5877 5878 5879 5880 5880 5881 5882 5883 5884 5885 5885 5885
5812 5813 5813 5813 5813 5815 5816 5816 5817 5819 5822 5825 5828 5832 5836 5840 5842 5844 5844 5845 5845 5847 5848 5850 5851 5853 5855 5857 5858 5860 5861 5863 5865 5867 5869 5871 5873 5874 5876 5877 5877 5878 5879 5880 5881 5881 5882 5882 5882
5806 5806 5805 5806 5806 5807 5809 5810 5811 5813 5817 5820 5823 5827 5832 5836 5838 5840 5841 5842 5843 5844 5846 5847 5849 5851 5852 5854 5855 5857 5858 5860 5862 5864 5866 5868 5870 5872 5873 5874 5875 5875 5876 5877 5878 5879 5879 5880 5880
5798 5798 5798 5799 5799 5800 5802 5803 5805 5808 5811 5814 5817 5822 5827 5831 5834 5837 5838 5839 5840 5841 5843 5845 5846 5848 5849 5850 5852 5854 5856 5858 5860 5862 5864 5865 5867 5869 5870 5871 5872 5872 5873 5874 5875 5875 5876 5876 5877
5791 5791 5791 5792 5792 5793 5794 5797 5799 5803 5805 5808 5812 5817 5823 5827 5830 5833 5834 5836 5837 5839 5840 5841 5843 5845 5846 5847 5849 5851 5852 5854 5857 5859 5860 5862 5864 5865 5866 5867 5868 5869 5870 5870 5871 5872 5872 5873 5873
5785 5785 5786 5785 5785 5786 5787 5790 5793 5796 5798 5802 5807 5812 5817 5822 5826 5828 5830 5832 5834 5835 5837 5838 5840 5842 5843 5844 5846 5847 5849 5851 5853 5855 5857 5858 5860 5861 5863 5864 5865 5865 5866 5866 5867 5868 5868 5869 5869
5779 5779 5780 5780 5780 5780 5782 5785 5788 5789 5792 5797 5801 5806 5812 5817 5821 5825 5827 5829 5831 5832 5833 5835 5837 5838 5840 5841 5843 5844 5846 5848 5849 5851 5853 5854 5855 5857 5858 5860 5860 5861 5861 5862 5863 5863 5864 5864 5864
5773 5774 5774 5775 5774 5775 5776 5779 5782 5784 5786 5790 5795 5800 5806 5811 5816 5820 5823 5826 5827 5828 5830 5831 5832 5834 5836 5837 5838 5840 5841 5843 5845 5846 5848 5850 5851 5852 5854 5855 5856 5856 5857 5858 5858 5859 5859 5859 5858
5769 5769 5770 5770 5770 5770 5771 5774 5777 5778 5781 5785 5789 5794 5799 5805 5810 5815 5818 5821 5823 5824 5825 5826 5827 5829 5831 5832 5833 5835 5836 5838 5840 5842 5843 5845 5846 5848 5849 5850 5851 5851 5852 5852 5852 5853 5853 5853 5853
5765 5765 5766 5766 5765 5766 5767 5769 5771 5773 5776 5779 5783 5788 5793 5799 5804 5809 5813 5816 5818 5820 5821 5822 5823 5825 5826 5828 5828 5830 5831 5832 5834 5836 5838 5839 5841 5842 5843 5843 5844 5845 5846 5846 5846 5847 5847 5846 5846
5761 5761 5762 5762 5762 5763 5764 5766 5767 5769 5771 5774 5778 5782 5787 5792 5798 5803 5807 5810 5813 5815 5817 5818 5819 5820 5821 5822 5823 5824 5824 5825 5827 5830 5832 5834 5835 5836 5837 5838 5838 5839 5840 5840 5840 5841 5841 5840 5840
5758 5758 5758 5759 5759 5760 5761 5763 5764 5765 5767 5770 5774 5777 5782 5786 5791 5796 5800 5804 5807 5809 5811 5813 5814 5815 5816 5816 5816 5817 5818 5819 5822 5824 5825 5827 5829 5830 5831 5832 5832 5833 5833 5833 5834 5834 5834 5833 5832
5755 5755 5755 5755 5756 5757 5759 5760 5761 5762 5764 5767 5770 5773 5776 5781 5785 5789 5794 5798 5801 5803 5806 5808 5809 5809 5810 5810 5811 5810 5810 5813 5816 5817 5819 5821 5822 5823 5824 5825 5825 5826 5826 5827 5827 5827 5827 5826 5825
5751 5751 5752 5752 5753 5754 5755 5757 5759 5759 5762 5764 5766 5769 5772 5775 5779 5784 5788 5792 5795 5797 5800 5802 5803 5804 5805 5804 5804 5802 5802 5804 5807 5810 5812 5814 5816 5817 5817 5818 5819 5819 5820 5820 5820 5820 5819 5819 5818
5748 5748 5749 5750 5750 5752 5753 5754 5756 5757 5759 5760 5763 5765 5768 5771 5774 5778 5782 5785 5788 5791 5793 5795 5797 5798 5799 5799 5798 5798 5797 5797 5800 5801 5805 5807 5808 5809 5811 5811 5812 5813 5813 5813 5813 5813 5812 5811 5811
5745 5746 5747 5747 5748 5749 5750 5751 5753 5754 5756 5758 5760 5762 5764 5767 5770 5773 5776 5779 5782 5785 5787 5789 5790 5792 5792 5793 5793 5792 5791 5791 5793 5795 5797 5800 5801 5802 5804 5805 5806 5806 5806 5806 5806 5806 5805 5805 5804
5741 5743 5745 5745 5746 5747 5747 5748 5751 5751 5753 5754 5756 5758 5761 5763 5765 5767 5770 5773 5776 5779 5781 5783 5784 5785 5786 5786 5786 5786 5787 5786 5788 5789 5791 5793 5795 5796 5796 5797 5798 5798 5799 5799 5799 5798 5798 5797 5796
5739 5740 5742 5743 5743 5744 5745 5746 5747 5748 5750 5751 5752 5754 5756 5758 5760 5763 5765 5767 5770 5772 5774 5776 5778 5779 5779 5780 5780 5781 5781 5782 5783 5784 5785 5787 5788 5789 5790 5791 5791 5791 5791 5791 5791 5791 5790 5789 5787
5738 5738 5740 5741 5741 5742 5743 5743 5745 5745 5746 5747 5748 5750 5751 5753 5755 5757 5759 5761 5764 5766 5768 5770 5771 5772 5773 5773 5774 5775 5776 5776 5778 5779 5780 5781 5782 5783 5783 5784 5784 5784 5784 5783 5783 5782 5781 5779 5777
5736 5737 5738 5739 5739 5740 5740 5744 5743 5743 5743 5744 5745 5745 5746 5748 5750 5752 5754 5756 5758 5760 5762 5763 5765 5766 5767 5768 5769 5769 5770 5771 5772 5773 5774 5775 5775 5775 5776 5776 5776 5776 5775 5775 5774 5772 5770 5769 5767
5734 5735 5736 5738 5738 5738 5738 5742 5739 5739 5739 5739 5740 5741 5742 5743 5745 5747 5748 5750 5752 5754 5755 5757 5758 5759 5760 5762 5762 5763 5764 5765 5766 5766 5767 5767 5768 5768 5768 5768 5767 5767 5766 5765 5764 5762 5760 5758 5755